TOM1JD EGKK-LEIB

Flight info

Callsign TOM1JD
Flight time 2h 7m
Altitude 35000
Route SFD Y47 DRAKE L151 SITET UN859 SOPIL DCT BALAN DCT EVPOK DCT NARAK DCT GAI DCT LOMRA DCT ROCAN DCT PUMAL DCT XEPLA DCT BCN Z174 CORDA
Aircraft B738/M-SDE2E3FGHIRWXY/LB1

Departure

Time 2026-05-04 12:16
Airport London Gatwick Airport (EGKK)

Arrival

Time 2026-05-04 14:23
Airport Ibiza Airport (LEIB)
Time Latitude Longitude Altitude Speed Heading
2026-05-04 11:16 51.16314 -0.18118 210 ft 0 kts 77°
2026-05-04 11:51 51.16312 -0.18132 203 ft 5 kts 77°
2026-05-04 11:51 51.16306 -0.18183 212 ft 5 kts 78°
2026-05-04 11:51 51.16299 -0.18234 205 ft 3 kts 78°
2026-05-04 11:52 51.16296 -0.18259 206 ft 2 kts 78°
2026-05-04 11:52 51.16294 -0.18274 211 ft 0 kts 78°
2026-05-04 11:55 51.15929 -0.18109 206 ft 16 kts 168°
2026-05-04 11:55 51.15849 -0.18081 209 ft 9 kts 167°
2026-05-04 11:56 51.15792 -0.18061 208 ft 8 kts 168°
2026-05-04 11:56 51.15736 -0.18041 206 ft 8 kts 167°
2026-05-04 11:56 51.15689 -0.18062 211 ft 8 kts 236°
2026-05-04 11:56 51.15671 -0.18160 206 ft 11 kts 258°
2026-05-04 11:57 51.15657 -0.18263 206 ft 6 kts 257°
2026-05-04 11:57 51.15652 -0.18301 205 ft 3 kts 257°
2026-05-04 11:57 51.15648 -0.18322 210 ft 2 kts 251°
2026-05-04 11:57 51.15641 -0.18338 205 ft 2 kts 228°
2026-05-04 11:58 51.15632 -0.18348 208 ft 2 kts 209°
2026-05-04 11:58 51.15621 -0.18352 205 ft 2 kts 189°
2026-05-04 11:58 51.15603 -0.18351 205 ft 4 kts 172°
2026-05-04 11:58 51.15562 -0.18337 205 ft 8 kts 167°
2026-05-04 11:59 51.15492 -0.18312 207 ft 12 kts 167°
2026-05-04 11:59 51.15404 -0.18282 203 ft 16 kts 168°
2026-05-04 11:59 51.15289 -0.18242 211 ft 17 kts 167°
2026-05-04 11:59 51.15205 -0.18232 207 ft 12 kts 207°
2026-05-04 12:00 51.15183 -0.18348 211 ft 11 kts 260°
2026-05-04 12:00 51.15167 -0.18465 209 ft 11 kts 257°
2026-05-04 12:00 51.15151 -0.18582 202 ft 11 kts 258°
2026-05-04 12:00 51.15134 -0.18708 202 ft 12 kts 259°
2026-05-04 12:01 51.15115 -0.18844 213 ft 13 kts 257°
2026-05-04 12:01 51.15095 -0.18983 206 ft 13 kts 257°
2026-05-04 12:02 51.14917 -0.19607 205 ft 16 kts 257°
2026-05-04 12:03 51.14893 -0.19784 206 ft 18 kts 258°
2026-05-04 12:03 51.14864 -0.19996 203 ft 21 kts 257°
2026-05-04 12:03 51.14830 -0.20238 208 ft 23 kts 257°
2026-05-04 12:03 51.14805 -0.20419 206 ft 0 kts 258°
2026-05-04 12:04 51.14803 -0.20432 205 ft 4 kts 258°
2026-05-04 12:04 51.14792 -0.20519 204 ft 11 kts 258°
2026-05-04 12:04 51.14773 -0.20655 202 ft 14 kts 257°
2026-05-04 12:04 51.14755 -0.20785 212 ft 9 kts 257°
2026-05-04 12:05 51.14751 -0.20816 210 ft 2 kts 257°
2026-05-04 12:05 51.14747 -0.20842 206 ft 2 kts 257°
2026-05-04 12:05 51.14743 -0.20867 205 ft 2 kts 257°
2026-05-04 12:05 51.14740 -0.20891 211 ft 2 kts 257°
2026-05-04 12:06 51.14737 -0.20915 208 ft 2 kts 257°
2026-05-04 12:06 51.14731 -0.20952 203 ft 5 kts 257°
2026-05-04 12:06 51.14722 -0.21018 207 ft 7 kts 258°
2026-05-04 12:06 51.14715 -0.21074 203 ft 3 kts 258°
2026-05-04 12:07 51.14714 -0.21075 203 ft 0 kts 258°
2026-05-04 12:08 51.14714 -0.21077 203 ft 0 kts 258°
2026-05-04 12:08 51.14712 -0.21097 211 ft 4 kts 258°
2026-05-04 12:08 51.14704 -0.21157 203 ft 8 kts 258°
2026-05-04 12:08 51.14696 -0.21212 211 ft 0 kts 257°
2026-05-04 12:13 51.14696 -0.21214 210 ft 1 kts 257°
2026-05-04 12:14 51.14522 -0.21151 201 ft 8 kts 78°
2026-05-04 12:15 51.14525 -0.21135 207 ft 0 kts 77°
2026-05-04 12:15 51.14525 -0.21132 214 ft 2 kts 77°
2026-05-04 12:15 51.14574 -0.20782 208 ft 67 kts 78°
2026-05-04 12:15 51.14722 -0.19702 206 ft 130 kts 78°
2026-05-04 12:16 51.14945 -0.18053 390 ft 163 kts 78°
2026-05-04 12:16 51.15190 -0.16268 1062 ft 170 kts 77°
2026-05-04 12:16 51.15458 -0.14333 1585 ft 192 kts 78°
2026-05-04 12:16 51.15721 -0.12165 2086 ft 209 kts 78°
2026-05-04 12:17 51.15982 -0.09855 2636 ft 217 kts 88°
2026-05-04 12:17 51.15615 -0.07541 3336 ft 219 kts 120°
2026-05-04 12:17 51.14647 -0.05647 4035 ft 227 kts 142°
2026-05-04 12:17 51.13113 -0.04647 4330 ft 254 kts 169°
2026-05-04 12:18 51.11360 -0.04110 4997 ft 263 kts 168°
2026-05-04 12:18 51.09553 -0.03538 5650 ft 264 kts 168°
2026-05-04 12:18 51.07762 -0.02809 5993 ft 267 kts 163°
2026-05-04 12:18 51.05961 -0.01937 5971 ft 271 kts 163°
2026-05-04 12:19 51.04149 -0.01055 6171 ft 275 kts 163°
2026-05-04 12:19 51.02333 -0.00174 6988 ft 275 kts 163°
2026-05-04 12:19 51.00501 0.00703 7886 ft 274 kts 164°
2026-05-04 12:19 50.98659 0.01577 8735 ft 277 kts 164°
2026-05-04 12:20 50.96802 0.02455 9578 ft 280 kts 164°
2026-05-04 12:20 50.94923 0.03341 10352 ft 283 kts 164°
2026-05-04 12:20 50.93019 0.04239 11084 ft 287 kts 164°
2026-05-04 12:20 50.91101 0.05143 11832 ft 290 kts 164°
2026-05-04 12:21 50.89177 0.06048 12565 ft 293 kts 165°
2026-05-04 12:21 50.87213 0.06972 13287 ft 296 kts 164°
2026-05-04 12:21 50.85231 0.07905 14031 ft 299 kts 164°
2026-05-04 12:21 50.83224 0.08851 14733 ft 301 kts 164°
2026-05-04 12:22 50.81209 0.09799 15482 ft 303 kts 164°
2026-05-04 12:22 50.79180 0.10752 16218 ft 305 kts 164°
2026-05-04 12:22 50.77128 0.11697 16918 ft 307 kts 167°
2026-05-04 12:22 50.74984 0.11868 17433 ft 316 kts 188°
2026-05-04 12:23 50.72800 0.11162 17588 ft 335 kts 192°
2026-05-04 12:23 50.70499 0.10298 17743 ft 353 kts 193°
2026-05-04 12:23 50.68046 0.09362 17930 ft 371 kts 193°
2026-05-04 12:23 50.65498 0.08400 18343 ft 381 kts 193°
2026-05-04 12:24 50.62905 0.07435 18901 ft 383 kts 193°
2026-05-04 12:24 50.60299 0.06480 19535 ft 384 kts 193°
2026-05-04 12:24 50.57679 0.05528 20145 ft 385 kts 193°
2026-05-04 12:24 50.55090 0.04593 20696 ft 388 kts 193°
2026-05-04 12:25 50.52444 0.03641 21251 ft 390 kts 193°
2026-05-04 12:25 50.49782 0.02682 21806 ft 392 kts 193°
2026-05-04 12:25 50.47138 0.01733 22347 ft 394 kts 193°
2026-05-04 12:25 50.44453 0.00769 22886 ft 396 kts 194°
2026-05-04 12:26 50.41740 -0.00200 23413 ft 399 kts 193°
2026-05-04 12:26 50.39029 -0.01166 23937 ft 399 kts 193°
2026-05-04 12:26 50.36324 -0.02128 24463 ft 398 kts 193°
2026-05-04 12:26 50.33642 -0.03081 24912 ft 400 kts 193°
2026-05-04 12:27 50.30922 -0.04048 25284 ft 403 kts 193°
2026-05-04 12:27 50.28173 -0.05024 25661 ft 405 kts 193°
2026-05-04 12:27 50.25414 -0.06000 26063 ft 407 kts 193°
2026-05-04 12:27 50.22591 -0.06535 26436 ft 411 kts 181°
2026-05-04 12:28 50.19732 -0.06131 26824 ft 414 kts 172°
2026-05-04 12:28 50.16941 -0.04977 27249 ft 418 kts 161°
2026-05-04 12:28 50.14275 -0.03115 27642 ft 421 kts 158°
2026-05-04 12:28 50.11619 -0.01180 27966 ft 423 kts 158°
2026-05-04 12:29 50.08888 0.00575 28166 ft 426 kts 165°
2026-05-04 12:29 50.06011 0.01769 28440 ft 428 kts 168°
2026-05-04 12:29 50.03150 0.02839 28821 ft 429 kts 168°
2026-05-04 12:29 50.00250 0.03915 29260 ft 428 kts 168°
2026-05-04 12:30 49.97372 0.04998 29781 ft 425 kts 168°
2026-05-04 12:30 49.94520 0.06091 30296 ft 422 kts 168°
2026-05-04 12:30 49.91675 0.07194 30698 ft 420 kts 168°
2026-05-04 12:30 49.88834 0.08302 30994 ft 421 kts 167°
2026-05-04 12:31 49.85983 0.09416 31286 ft 422 kts 167°
2026-05-04 12:31 49.83135 0.10529 31634 ft 421 kts 167°
2026-05-04 12:31 49.80289 0.11640 31996 ft 420 kts 167°
2026-05-04 12:31 49.77453 0.12745 32340 ft 420 kts 167°
2026-05-04 12:32 49.74647 0.13836 32652 ft 420 kts 167°
2026-05-04 12:32 49.68963 0.16042 33297 ft 419 kts 167°
2026-05-04 12:32 49.66169 0.17140 33607 ft 419 kts 167°
2026-05-04 12:33 49.63339 0.18283 33925 ft 419 kts 166°
2026-05-04 12:33 49.60521 0.19432 34200 ft 419 kts 166°
2026-05-04 12:33 49.57701 0.20583 34405 ft 420 kts 166°
2026-05-04 12:33 49.54868 0.21734 34584 ft 421 kts 166°
2026-05-04 12:34 49.52993 0.22494 34732 ft 421 kts 167°
2026-05-04 12:34 49.50145 0.23646 34948 ft 422 kts 167°
2026-05-04 12:34 49.47283 0.24800 35003 ft 426 kts 167°
2026-05-04 12:35 49.41566 0.27100 34989 ft 427 kts 167°
2026-05-04 12:35 49.35858 0.29394 34988 ft 420 kts 167°
2026-05-04 12:36 49.30207 0.31660 34991 ft 419 kts 167°
2026-05-04 12:36 49.24602 0.34004 34989 ft 419 kts 166°
2026-05-04 12:37 49.18974 0.36387 34974 ft 419 kts 166°
2026-05-04 12:37 49.13333 0.38762 34971 ft 420 kts 166°
2026-05-04 12:38 49.07724 0.41110 34973 ft 420 kts 166°
2026-05-04 12:38 49.02063 0.43472 34967 ft 421 kts 166°
2026-05-04 12:39 48.96455 0.45806 34953 ft 421 kts 166°
2026-05-04 12:39 48.90802 0.48155 34961 ft 421 kts 166°
2026-05-04 12:40 48.85175 0.50487 34966 ft 421 kts 166°
2026-05-04 12:40 48.79506 0.52831 34965 ft 421 kts 166°
2026-05-04 12:41 48.73867 0.55078 34966 ft 421 kts 167°
2026-05-04 12:41 48.68175 0.57284 34964 ft 421 kts 167°
2026-05-04 12:42 48.62500 0.59490 34962 ft 421 kts 167°
2026-05-04 12:42 48.56856 0.61689 34966 ft 421 kts 167°
2026-05-04 12:43 48.51172 0.63902 34961 ft 421 kts 167°
2026-05-04 12:43 48.45510 0.66197 34962 ft 421 kts 166°
2026-05-04 12:44 48.39896 0.68493 34967 ft 420 kts 167°
2026-05-04 12:44 48.34231 0.70792 34957 ft 420 kts 167°
2026-05-04 12:45 48.28578 0.73077 34962 ft 420 kts 167°
2026-05-04 12:45 48.22973 0.75327 34962 ft 419 kts 167°
2026-05-04 12:46 48.17326 0.77551 34958 ft 418 kts 167°
2026-05-04 12:46 48.11685 0.79763 34952 ft 418 kts 167°
2026-05-04 12:47 48.06063 0.81968 34950 ft 418 kts 167°
2026-05-04 12:47 48.00470 0.84158 34952 ft 418 kts 167°
2026-05-04 12:48 47.94860 0.86351 34940 ft 418 kts 167°
2026-05-04 12:48 47.89223 0.88550 34948 ft 417 kts 167°
2026-05-04 12:49 47.83635 0.90724 34944 ft 417 kts 167°
2026-05-04 12:49 47.78004 0.92905 34928 ft 417 kts 168°
2026-05-04 12:50 47.72374 0.95080 34935 ft 417 kts 168°
2026-05-04 12:50 47.66786 0.97236 34931 ft 417 kts 168°
2026-05-04 12:51 47.61157 0.99402 34924 ft 418 kts 168°
2026-05-04 12:51 47.55711 1.01495 34923 ft 418 kts 168°
2026-05-04 12:52 47.50068 1.03659 34924 ft 418 kts 168°
2026-05-04 12:52 47.44454 1.05786 34923 ft 419 kts 170°
2026-05-04 12:53 47.38689 1.06426 34934 ft 415 kts 182°
2026-05-04 12:53 47.32916 1.06221 34924 ft 415 kts 183°
2026-05-04 12:54 47.27138 1.06051 34926 ft 415 kts 182°
2026-05-04 12:54 47.21384 1.05915 34926 ft 415 kts 182°
2026-05-04 12:55 47.15600 1.05788 34918 ft 415 kts 182°
2026-05-04 12:55 47.09828 1.05660 34921 ft 415 kts 182°
2026-05-04 12:56 47.04080 1.05533 34942 ft 415 kts 182°
2026-05-04 12:56 46.98320 1.05349 34940 ft 415 kts 183°
2026-05-04 12:57 46.92545 1.05082 34932 ft 414 kts 184°
2026-05-04 12:57 46.86831 1.04820 34928 ft 412 kts 183°
2026-05-04 12:58 46.81103 1.04568 34934 ft 411 kts 183°
2026-05-04 12:58 46.75393 1.04321 34935 ft 410 kts 183°
2026-05-04 12:59 46.69692 1.04076 34930 ft 409 kts 183°
2026-05-04 12:59 46.63995 1.03831 34938 ft 409 kts 183°
2026-05-04 13:00 46.58346 1.03589 34933 ft 408 kts 183°
2026-05-04 13:00 46.52654 1.03392 34927 ft 408 kts 180°
2026-05-04 13:01 46.47061 1.04716 34955 ft 411 kts 169°
2026-05-04 13:01 46.41483 1.06642 34938 ft 412 kts 169°
2026-05-04 13:02 46.35893 1.08543 34930 ft 412 kts 170°
2026-05-04 13:02 46.30297 1.10417 34935 ft 412 kts 170°
2026-05-04 13:03 46.24715 1.12275 34944 ft 413 kts 170°
2026-05-04 13:03 46.19102 1.14137 34933 ft 413 kts 170°
2026-05-04 13:04 46.13523 1.15984 34936 ft 414 kts 170°
2026-05-04 13:04 46.07886 1.17847 34943 ft 414 kts 170°
2026-05-04 13:05 46.02291 1.19693 34927 ft 414 kts 171°
2026-05-04 13:05 45.96691 1.21536 34938 ft 413 kts 171°
2026-05-04 13:06 45.91108 1.23370 34931 ft 413 kts 171°
2026-05-04 13:06 45.85511 1.25205 34942 ft 412 kts 171°
2026-05-04 13:07 45.79901 1.27040 34939 ft 412 kts 171°
2026-05-04 13:07 45.74345 1.28854 34939 ft 411 kts 171°
2026-05-04 13:08 45.68764 1.30672 34934 ft 411 kts 171°
2026-05-04 13:08 45.63177 1.32488 34933 ft 411 kts 171°
2026-05-04 13:09 45.57580 1.34305 34929 ft 411 kts 171°
2026-05-04 13:09 45.52022 1.36105 34930 ft 411 kts 171°
2026-05-04 13:10 45.46436 1.37910 34919 ft 411 kts 171°
2026-05-04 13:10 45.40884 1.39700 34926 ft 411 kts 171°
2026-05-04 13:11 45.35306 1.41496 34920 ft 410 kts 171°
2026-05-04 13:11 45.29730 1.43288 34919 ft 410 kts 171°
2026-05-04 13:12 45.24186 1.45065 34920 ft 410 kts 171°
2026-05-04 13:12 45.18592 1.46856 34916 ft 412 kts 171°
2026-05-04 13:13 45.13022 1.48635 34905 ft 412 kts 172°
2026-05-04 13:13 45.07418 1.50422 34910 ft 410 kts 172°
2026-05-04 13:14 45.01857 1.52192 34911 ft 410 kts 172°
2026-05-04 13:14 44.96340 1.53944 34911 ft 408 kts 172°
2026-05-04 13:15 44.90794 1.55701 34915 ft 408 kts 172°
2026-05-04 13:15 44.85231 1.57460 34922 ft 409 kts 172°
2026-05-04 13:16 44.79668 1.59215 34925 ft 411 kts 172°
2026-05-04 13:16 44.74102 1.60968 34919 ft 412 kts 172°
2026-05-04 13:17 44.68485 1.62735 34913 ft 413 kts 172°
2026-05-04 13:17 44.62914 1.64483 34928 ft 413 kts 172°
2026-05-04 13:18 44.57327 1.66233 34910 ft 413 kts 172°
2026-05-04 13:18 44.51720 1.67986 34910 ft 412 kts 172°
2026-05-04 13:19 44.46111 1.69737 34926 ft 412 kts 172°
2026-05-04 13:19 44.40513 1.71480 34906 ft 411 kts 173°
2026-05-04 13:20 44.34959 1.73206 34919 ft 410 kts 173°
2026-05-04 13:20 44.29380 1.74929 34926 ft 410 kts 174°
2026-05-04 13:21 44.23770 1.76262 34924 ft 408 kts 176°
2026-05-04 13:21 44.18185 1.77429 34930 ft 408 kts 176°
2026-05-04 13:22 44.12555 1.78638 34918 ft 408 kts 176°
2026-05-04 13:22 44.06925 1.79872 34928 ft 409 kts 176°
2026-05-04 13:23 44.01327 1.81102 34893 ft 409 kts 176°
2026-05-04 13:23 43.95710 1.82330 34913 ft 409 kts 177°
2026-05-04 13:24 43.91023 1.82962 34928 ft 405 kts 181°
2026-05-04 13:24 43.85389 1.83447 34919 ft 405 kts 181°
2026-05-04 13:25 43.76962 1.84201 34911 ft 405 kts 181°
2026-05-04 13:25 43.71377 1.84736 34919 ft 404 kts 181°
2026-05-04 13:26 43.65745 1.85282 34912 ft 404 kts 181°
2026-05-04 13:26 43.60168 1.85822 34911 ft 403 kts 182°
2026-05-04 13:27 43.54570 1.86362 34911 ft 403 kts 182°
2026-05-04 13:27 43.48974 1.86901 34917 ft 402 kts 182°
2026-05-04 13:28 43.43383 1.87439 34920 ft 402 kts 182°
2026-05-04 13:28 43.37836 1.87971 34913 ft 401 kts 182°
2026-05-04 13:29 43.32274 1.88504 34913 ft 400 kts 182°
2026-05-04 13:29 43.26709 1.89040 34920 ft 400 kts 182°
2026-05-04 13:30 43.21183 1.89571 34902 ft 400 kts 182°
2026-05-04 13:30 43.15622 1.90104 34910 ft 400 kts 182°
2026-05-04 13:31 43.10052 1.90638 34918 ft 400 kts 182°
2026-05-04 13:31 43.04491 1.91169 34901 ft 400 kts 182°
2026-05-04 13:32 42.98966 1.91696 34887 ft 400 kts 182°
2026-05-04 13:32 42.93409 1.92226 34901 ft 400 kts 182°
2026-05-04 13:33 42.87830 1.92756 34903 ft 401 kts 182°
2026-05-04 13:33 42.82281 1.93282 34902 ft 402 kts 182°
2026-05-04 13:34 42.76679 1.93813 34907 ft 403 kts 182°
2026-05-04 13:34 42.71104 1.94339 34907 ft 405 kts 182°
2026-05-04 13:35 42.62647 1.95543 34915 ft 409 kts 178°
2026-05-04 13:36 42.57017 1.96722 34900 ft 410 kts 178°
2026-05-04 13:36 42.51401 1.97873 34911 ft 410 kts 178°
2026-05-04 13:37 42.45736 1.99001 34907 ft 411 kts 178°
2026-05-04 13:37 42.40298 2.00084 34925 ft 410 kts 179°
2026-05-04 13:38 42.34659 2.01061 34921 ft 405 kts 182°
2026-05-04 13:38 42.29053 2.01596 34933 ft 402 kts 182°
2026-05-04 13:39 42.23514 2.02092 34930 ft 402 kts 182°
2026-05-04 13:39 42.17932 2.02611 34908 ft 400 kts 182°
2026-05-04 13:40 42.12381 2.03137 34924 ft 398 kts 182°
2026-05-04 13:40 42.06839 2.03670 34912 ft 398 kts 182°
2026-05-04 13:41 42.01338 2.04198 34924 ft 398 kts 182°
2026-05-04 13:41 41.95811 2.04724 34918 ft 400 kts 183°
2026-05-04 13:42 41.87481 2.05517 34927 ft 401 kts 183°
2026-05-04 13:42 41.81907 2.06047 34942 ft 401 kts 183°
2026-05-04 13:43 41.76351 2.06575 34946 ft 402 kts 183°
2026-05-04 13:43 41.70756 2.07106 34954 ft 401 kts 183°
2026-05-04 13:44 41.65183 2.07628 34955 ft 400 kts 183°
2026-05-04 13:44 41.59663 2.08137 34969 ft 399 kts 183°
2026-05-04 13:45 41.54117 2.08648 34961 ft 398 kts 183°
2026-05-04 13:45 41.48590 2.09158 34962 ft 397 kts 183°
2026-05-04 13:46 41.43118 2.09661 34964 ft 396 kts 183°
2026-05-04 13:46 41.37634 2.10165 34957 ft 395 kts 183°
2026-05-04 13:47 41.32161 2.10667 34935 ft 393 kts 183°
2026-05-04 13:47 41.26701 2.11378 34963 ft 394 kts 180°
2026-05-04 13:48 41.21237 2.12331 34962 ft 396 kts 180°
2026-05-04 13:48 41.15795 2.13283 34962 ft 396 kts 180°
2026-05-04 13:49 41.10329 2.14214 34935 ft 396 kts 180°
2026-05-04 13:49 41.04846 2.15134 34943 ft 396 kts 180°
2026-05-04 13:50 40.99370 2.16048 34939 ft 397 kts 180°
2026-05-04 13:50 40.93899 2.16958 34932 ft 399 kts 180°
2026-05-04 13:51 40.88370 2.17878 34908 ft 401 kts 180°
2026-05-04 13:51 40.82831 2.18798 34924 ft 402 kts 180°
2026-05-04 13:52 40.74556 2.20173 34701 ft 397 kts 180°
2026-05-04 13:52 40.71844 2.20626 34446 ft 388 kts 180°
2026-05-04 13:53 40.69174 2.21070 34045 ft 385 kts 180°
2026-05-04 13:53 40.66525 2.21508 33642 ft 381 kts 180°
2026-05-04 13:53 40.63901 2.21940 33222 ft 377 kts 180°
2026-05-04 13:54 40.58740 2.22789 32444 ft 370 kts 180°
2026-05-04 13:54 40.56222 2.23203 32062 ft 367 kts 180°
2026-05-04 13:54 40.51197 2.24028 31331 ft 360 kts 180°
2026-05-04 13:55 40.48716 2.24435 30967 ft 358 kts 180°
2026-05-04 13:55 40.43717 2.25249 30227 ft 366 kts 180°
2026-05-04 13:55 40.41227 2.25676 29840 ft 365 kts 178°
2026-05-04 13:56 40.38729 2.26251 29420 ft 364 kts 176°
2026-05-04 13:56 40.36248 2.26899 29023 ft 361 kts 175°
2026-05-04 13:56 40.31367 2.28212 28262 ft 354 kts 176°
2026-05-04 13:57 40.28991 2.28843 27877 ft 352 kts 176°
2026-05-04 13:57 40.26587 2.29475 27486 ft 349 kts 176°
2026-05-04 13:58 40.19349 2.31346 26369 ft 353 kts 176°
2026-05-04 13:58 40.14581 2.32577 25633 ft 348 kts 176°
2026-05-04 13:58 40.12203 2.33190 25265 ft 346 kts 177°
2026-05-04 13:59 40.09869 2.33789 24905 ft 344 kts 177°
2026-05-04 13:59 40.07519 2.34393 24538 ft 343 kts 177°
2026-05-04 13:59 40.02836 2.35592 23801 ft 341 kts 177°
2026-05-04 14:00 40.00531 2.36182 23400 ft 340 kts 177°
2026-05-04 14:00 39.95900 2.37368 22621 ft 337 kts 177°
2026-05-04 14:00 39.93600 2.37956 22250 ft 335 kts 177°
2026-05-04 14:01 39.91348 2.38532 21902 ft 332 kts 176°
2026-05-04 14:01 39.89086 2.39109 21548 ft 331 kts 176°
2026-05-04 14:01 39.84557 2.40262 20857 ft 332 kts 176°
2026-05-04 14:02 39.82291 2.40839 20515 ft 332 kts 176°
2026-05-04 14:02 39.80019 2.41418 20166 ft 332 kts 176°
2026-05-04 14:02 39.77744 2.41997 19798 ft 331 kts 176°
2026-05-04 14:02 39.75486 2.42478 19450 ft 325 kts 182°
2026-05-04 14:03 39.73281 2.42454 19107 ft 317 kts 192°
2026-05-04 14:03 39.71096 2.42116 18752 ft 316 kts 193°
2026-05-04 14:03 39.68906 2.41756 18410 ft 315 kts 193°
2026-05-04 14:03 39.66731 2.41403 18023 ft 315 kts 193°
2026-05-04 14:04 39.62419 2.40728 17310 ft 312 kts 192°
2026-05-04 14:04 39.60262 2.40398 16969 ft 311 kts 192°
2026-05-04 14:04 39.58105 2.40068 16625 ft 310 kts 192°
2026-05-04 14:05 39.54123 2.38460 15944 ft 297 kts 215°
2026-05-04 14:05 39.52500 2.36828 15606 ft 293 kts 224°
2026-05-04 14:05 39.50994 2.35063 15273 ft 292 kts 224°
2026-05-04 14:06 39.49501 2.33284 14939 ft 291 kts 224°
2026-05-04 14:06 39.48011 2.31508 14605 ft 290 kts 224°
2026-05-04 14:06 39.46542 2.29762 14277 ft 289 kts 224°
2026-05-04 14:06 39.45058 2.28006 13938 ft 289 kts 224°
2026-05-04 14:07 39.43566 2.26247 13575 ft 289 kts 224°
2026-05-04 14:07 39.42077 2.24496 13219 ft 288 kts 224°
2026-05-04 14:07 39.40611 2.22774 12876 ft 287 kts 223°
2026-05-04 14:07 39.39133 2.21042 12545 ft 286 kts 223°
2026-05-04 14:08 39.37664 2.19322 12220 ft 284 kts 223°
2026-05-04 14:08 39.36197 2.17606 11893 ft 283 kts 223°
2026-05-04 14:08 39.34740 2.15902 11573 ft 281 kts 223°
2026-05-04 14:08 39.33306 2.14228 11254 ft 280 kts 223°
2026-05-04 14:09 39.30417 2.10857 10602 ft 278 kts 223°
2026-05-04 14:09 39.28985 2.09187 10302 ft 277 kts 223°
2026-05-04 14:10 39.26206 2.05951 10049 ft 261 kts 223°
2026-05-04 14:10 39.24887 2.04416 9881 ft 256 kts 223°
2026-05-04 14:10 39.23564 2.02877 9574 ft 255 kts 223°
2026-05-04 14:10 39.22250 2.01349 9301 ft 254 kts 223°
2026-05-04 14:11 39.20957 1.99847 9026 ft 252 kts 223°
2026-05-04 14:11 39.18364 1.96835 8471 ft 249 kts 223°
2026-05-04 14:11 39.17112 1.95382 8214 ft 248 kts 223°
2026-05-04 14:12 39.15830 1.93895 7940 ft 247 kts 223°
2026-05-04 14:12 39.14557 1.92419 7669 ft 246 kts 223°
2026-05-04 14:12 39.12017 1.89477 7171 ft 243 kts 223°
2026-05-04 14:13 39.10779 1.88043 7062 ft 236 kts 223°
2026-05-04 14:13 39.09591 1.86669 6948 ft 229 kts 223°
2026-05-04 14:13 39.08427 1.85324 6855 ft 221 kts 223°
2026-05-04 14:13 39.07302 1.84025 6760 ft 212 kts 223°
2026-05-04 14:14 39.06581 1.83193 6703 ft 207 kts 223°
2026-05-04 14:14 39.04759 1.79711 6307 ft 209 kts 242°
2026-05-04 14:14 39.04317 1.78592 6179 ft 205 kts 242°
2026-05-04 14:15 39.03056 1.75432 5713 ft 194 kts 241°
2026-05-04 14:15 39.01864 1.72530 5436 ft 174 kts 241°
2026-05-04 14:16 39.00742 1.69828 5299 ft 175 kts 241°
2026-05-04 14:16 39.00163 1.68434 5119 ft 178 kts 241°
2026-05-04 14:17 38.99026 1.65697 4671 ft 170 kts 241°
2026-05-04 14:17 38.98473 1.64363 4439 ft 166 kts 241°
2026-05-04 14:17 38.97411 1.61806 4006 ft 161 kts 242°
2026-05-04 14:18 38.96894 1.60560 3819 ft 159 kts 242°
2026-05-04 14:18 38.95869 1.58086 3397 ft 156 kts 240°
2026-05-04 14:19 38.94846 1.55619 2990 ft 156 kts 240°
2026-05-04 14:19 38.94337 1.54388 2776 ft 155 kts 240°
2026-05-04 14:19 38.93838 1.53184 2558 ft 155 kts 240°
2026-05-04 14:19 38.93326 1.51948 2378 ft 158 kts 240°
2026-05-04 14:20 38.92812 1.50703 2173 ft 157 kts 239°
2026-05-04 14:20 38.92303 1.49472 1952 ft 154 kts 239°
2026-05-04 14:20 38.91804 1.48266 1750 ft 152 kts 239°
2026-05-04 14:21 38.90800 1.45840 1357 ft 154 kts 240°
2026-05-04 14:21 38.90306 1.44640 1137 ft 149 kts 238°
2026-05-04 14:21 38.89839 1.43508 968 ft 140 kts 238°
2026-05-04 14:21 38.89375 1.42384 744 ft 144 kts 240°
2026-05-04 14:22 38.88905 1.41235 499 ft 145 kts 241°
2026-05-04 14:22 38.88442 1.40100 329 ft 141 kts 240°
2026-05-04 14:22 38.87983 1.38996 112 ft 139 kts 239°
2026-05-04 14:22 38.87541 1.37929 13 ft 127 kts 240°
2026-05-04 14:23 38.86971 1.36553 7 ft 43 kts 243°
2026-05-04 14:23 38.86886 1.36347 4 ft 12 kts 245°
2026-05-04 14:23 38.86900 1.36273 5 ft 8 kts 319°
2026-05-04 14:24 38.86948 1.36240 6 ft 8 kts 332°
2026-05-04 14:24 38.86994 1.36209 7 ft 7 kts 342°
2026-05-04 14:24 38.87032 1.36246 7 ft 7 kts 60°
2026-05-04 14:24 38.87058 1.36309 9 ft 10 kts 62°
2026-05-04 14:25 38.87096 1.36402 7 ft 14 kts 62°
2026-05-04 14:25 38.87213 1.36686 8 ft 21 kts 62°
2026-05-04 14:25 38.87280 1.36853 8 ft 21 kts 63°
2026-05-04 14:26 38.87337 1.36991 8 ft 8 kts 64°
2026-05-04 14:26 38.87371 1.37002 8 ft 7 kts 334°
2026-05-04 14:26 38.87427 1.36965 8 ft 7 kts 333°
2026-05-04 14:26 38.87437 1.36958 7 ft 2 kts 333°
2026-05-04 14:27 38.87438 1.36957 7 ft 0 kts 333°